Location: Santa Barbara
(34.4500°N, 119.7700°W)
Time: 20:37:23
(UTC-07:00)

Cosmos 1892 Rocket - Visible Passes

Search period start: 01 July 2015 00:00
Search period end: 11 July 2015 00:00
Orbit: 608 x 633 km, 82.5° (Epoch: 01 July)

Date Brightness Start Highest point End Pass type
(mag) Time Alt. Az. Time Alt. Az. Time Alt. Az.
01 Jul 4.5 02:38:15 10° N 02:41:23 44° NNW 02:41:23 44° NNW visible
02 Jul 6.1 01:19:46 10° NE 01:21:41 15° ENE 01:21:41 15° ENE visible
02 Jul 5.1 02:56:22 10° NNW 02:58:51 27° NW 02:58:51 27° NW visible
03 Jul 5.5 01:36:33 10° NNE 01:39:10 25° NE 01:39:10 25° NE visible
03 Jul 5.8 03:15:02 10° NW 03:16:20 15° WNW 03:16:20 15° WNW visible
04 Jul 5.1 01:53:59 10° N 01:56:40 34° NNE 01:56:40 34° NNE visible
05 Jul 5.2 02:11:48 10° NNW 02:14:11 31° NNW 02:14:11 31° NNW visible
06 Jul 6.1 00:53:03 10° NNE 00:54:34 15° NE 00:54:34 15° NE visible
06 Jul 5.6 02:30:00 10° NNW 02:31:44 20° NW 02:31:44 20° NW visible
07 Jul 5.7 01:09:59 10° NNE 01:12:07 23° NE 01:12:07 23° NE visible
07 Jul 6.1 02:48:47 10° NW 02:49:17 12° NW 02:49:17 12° NW visible
08 Jul 5.5 01:27:29 10° N 01:29:41 28° N 01:29:41 28° N visible
09 Jul 5.6 01:45:21 10° NNW 01:47:15 25° NNW 01:47:15 25° NNW visible
10 Jul 6.1 00:26:22 10° NNE 00:27:41 15° NE 00:27:41 15° NE visible
10 Jul 6.0 02:03:37 10° NNW 02:04:51 17° NW 02:04:51 17° NW visible
